| time (UTC) | temp C | wind direction | speed KPH | gust KPH | rain 1hr cm | rain 24hr cm | rain mn cm | humidity % | barometer mb |
| 20260504044532 | 19 | 360 | 4.8 | 14.5 | 0.00 | 0.00 | 0.00 | 50 | 1011.8 |
| 20260504043026 | 20 | 360 | 6.4 | 14.5 | 0.00 | 0.00 | 0.00 | 50 | 1011.8 |
| 20260504041524 | 20 | 360 | 4.8 | 16.1 | 0.00 | 0.00 | 0.00 | 50 | 1012.1 |
| 20260504040023 | 20 | 360 | 3.2 | 12.9 | 0.00 | 0.00 | 0.00 | 50 | 1012.4 |
| 20260504034533 | 20 | 360 | 4.8 | 20.9 | 0.00 | 0.00 | 0.00 | 48 | 1012.4 |
| 20260504033022 | 20 | 360 | 4.8 | 17.7 | 0.00 | 0.00 | 0.00 | 47 | 1012.4 |
| 20260504031522 | 21 | 360 | 4.8 | 16.1 | 0.00 | 0.00 | 0.00 | 46 | 1012.3 |
| 20260504030037 | 21 | 360 | 6.4 | 16.1 | 0.00 | 0.00 | 0.00 | 45 | 1012.2 |
| 20260504024520 | 21 | 360 | 4.8 | 12.9 | 0.00 | 0.00 | 0.00 | 44 | 1012.2 |
| 20260504023020 | 21 | 360 | 4.8 | 14.5 | 0.00 | 0.00 | 0.00 | 44 | 1012.2 |
| 20260504021518 | 22 | 360 | 4.8 | 14.5 | 0.00 | 0.00 | 0.00 | 43 | 1011.9 |
| 20260504020018 | 22 | 360 | 4.8 | 14.5 | 0.00 | 0.00 | 0.00 | 42 | 1011.8 |
| 20260504014532 | 22 | 360 | 4.8 | 16.1 | 0.00 | 0.00 | 0.00 | 42 | 1011.8 |
| 20260504013017 | 23 | 360 | 4.8 | 12.9 | 0.00 | 0.00 | 0.00 | 40 | 1011.9 |
| 20260504011516 | 23 | 360 | 4.8 | 14.5 | 0.00 | 0.00 | 0.00 | 39 | 1011.8 |
| 20260504010020 | 24 | 360 | 6.4 | 12.9 | 0.00 | 0.00 | 0.00 | 37 | 1011.9 |
| 20260504004515 | 24 | 360 | 4.8 | 14.5 | 0.00 | 0.00 | 0.00 | 36 | 1012.1 |
| 20260504003025 | 25 | 360 | 3.2 | 12.9 | 0.00 | 0.00 | 0.00 | 35 | 1012.0 |
| 20260504001512 | 25 | 360 | 6.4 | 14.5 | 0.00 | 0.00 | 0.00 | 34 | 1012.1 |
| 20260504000011 | 25 | 360 | 4.8 | 17.7 | 0.00 | 0.00 | 0.00 | 33 | 1012.2 |
| 20260503234527 | 26 | 360 | 8.0 | 16.1 | 0.00 | 0.00 | 0.00 | 33 | 1012.3 |
| 20260503233011 | 26 | 360 | 4.8 | 20.9 | 0.00 | 0.00 | 0.00 | 34 | 1012.4 |
| 20260503231512 | 26 | 360 | 3.2 | 14.5 | 0.00 | 0.00 | 0.00 | 33 | 1012.3 |
| 20260503230007 | 26 | 360 | 3.2 | 12.9 | 0.00 | 0.00 | 0.00 | 34 | 1012.5 |
| 20260503224505 | 27 | 360 | 4.8 | 17.7 | 0.00 | 0.00 | 0.00 | 32 | 1012.6 |
| 20260503223004 | 27 | 175 | 8.0 | 16.1 | 0.00 | 0.00 | 0.00 | 33 | 1012.7 |
| 20260503221503 | 27 | 219 | 6.4 | 14.5 | 0.00 | 0.00 | 0.00 | 30 | 1013.0 |
| 20260503220101 | 27 | 360 | 6.4 | 16.1 | 0.00 | 0.00 | 0.00 | 31 | 1012.9 |
| 20260503214601 | 27 | 360 | 4.8 | 14.5 | 0.00 | 0.00 | 0.00 | 31 | 1013.2 |
| 20260503213108 | 27 | 360 | 4.8 | 12.9 | 0.00 | 0.00 | 0.00 | 31 | 1013.4 |
| 20260503211556 | 27 | 360 | 3.2 | 17.7 | 0.00 | 0.00 | 0.00 | 34 | 1013.7 |
| 20260503210101 | 27 | 360 | 4.8 | 12.9 | 0.00 | 0.00 | 0.00 | 31 | 1013.9 |
| 20260503204555 | 27 | 162 | 6.4 | 17.7 | 0.00 | 0.00 | 0.00 | 32 | 1014.1 |
| 20260503203051 | 27 | 188 | 4.8 | 12.9 | 0.00 | 0.00 | 0.00 | 32 | 1014.5 |
| 20260503201551 | 27 | 236 | 4.8 | 11.3 | 0.00 | 0.00 | 0.00 | 33 | 1014.6 |
| 20260503200054 | 27 | 169 | 6.4 | 12.9 | 0.00 | 0.00 | 0.00 | 34 | 1015.0 |
| 20260503194547 | 27 | 200 | 4.8 | 12.9 | 0.00 | 0.00 | 0.00 | 32 | 1015.2 |
| 20260503193052 | 27 | 224 | 8.0 | 14.5 | 0.00 | 0.00 | 0.00 | 29 | 1015.5 |
| 20260503191544 | 27 | 152 | 4.8 | 16.1 | 0.00 | 0.00 | 0.00 | 37 | 1015.6 |
| 20260503190042 | 28 | 196 | 6.4 | 17.7 | 0.00 | 0.00 | 0.00 | 33 | 1015.6 |
| 20260503184551 | 28 | 221 | 6.4 | 14.5 | 0.00 | 0.00 | 0.00 | 34 | 1015.7 |
| 20260503183054 | 27 | 236 | 4.8 | 11.3 | 0.00 | 0.00 | 0.00 | 31 | 1016.0 |
| 20260503181534 | 27 | 207 | 3.2 | 12.9 | 0.00 | 0.00 | 0.00 | 37 | 1016.1 |
| 20260503180040 | 27 | 230 | 4.8 | 9.7 | 0.00 | 0.00 | 0.00 | 36 | 1016.5 |
| 20260503174529 | 26 | 217 | 3.2 | 8.0 | 0.00 | 0.00 | 0.00 | 38 | 1017.0 |
| 20260503173042 | 26 | 261 | 4.8 | 9.7 | 0.00 | 0.00 | 0.00 | 37 | 1017.0 |
| 20260503171527 | 26 | 233 | 1.6 | 9.7 | 0.00 | 0.00 | 0.00 | 43 | 1017.1 |
| 20260503100107 | 11 | 151 | 0.0 | 4.8 | 0.00 | 0.00 | 0.00 | 77 | 1017.8 |
| 20260503081546 | 13 | 360 | 1.6 | 4.8 | 0.00 | 0.00 | 0.00 | 71 | 1018.6 |
| 20260503071539 | 13 | 360 | 1.6 | 4.8 | 0.00 | 0.00 | 0.00 | 71 | 1019.3 |